Regional Weather Roundup
Issued by NWS

Home | Current Version | Previous Version | Graphics & Text | Print | Product List | Glossary On
Versions: 1 2 3 4 5 6 7 8 9 10 11 12 13 14 15 16 17 18 19 20 21 22 23 24 25 26 27 28 29 30 31 32 33 34 35 36 37 38 39 40 41 42 43 44 45 46 47 48 49 50
000
ASUS45 KCYS 171310
RWRWY

WYOMING REGIONAL WEATHER ROUNDUP
NATIONAL WEATHER SERVICE CHEYENNE WY
600 AM MST WED DEC 17 2014

NOTE:  "FAIR" INDICATES FEW OR NO CLOUDS BELOW 12,000 FEET
WITH NO SIGNIFICANT WEATHER AND/OR OBSTRUCTIONS TO VISIBILITY.

WYZ001-171400-
YELLOWSTONE NATIONAL PARK

CITY           SKY/WX    TMP DP  RH WIND       PRES   REMARKS
LK YELLOWSTONE   N/A     19  16  88 CALM      29.94S
W YELLOWSTONE  NOT AVBL

$$
WYZ002>013-054>058-071-098>099-171400-
NORTHERN WYOMING

CITY           SKY/WX    TMP DP  RH WIND       PRES   REMARKS
JACKSON        CLOUDY    23  21  93 CALM      29.97S
CODY           FAIR      16  16 100 N5        29.90R WCI   9
GREYBULL       MOCLDY    15  12  88 SW7       29.96S WCI   5
WORLAND        FAIR       2   0  91 S5        29.96R WCI  -8
SHERIDAN       FOG       19  15  84 CALM      29.96R VSB 3/4
BUFFALO        MOCLDY    19  15  84 CALM      29.90S
GILLETTE       FAIR      15  12  88 S15       29.92S WCI   0
HULETT           N/A    N/A N/A N/A MISG        N/A
NEWCASTLE      CLOUDY    18  18 100 SE5       29.99S FOG     WCI  11

$$
WYZ014>020-022>026-101>103-171400-
CENTRAL WYOMING

CITY           SKY/WX    TMP DP  RH WIND       PRES   REMARKS
BIG PINEY      FAIR      15  13  91 E6        29.98S WCI   6
PINEDALE       CLOUDY    19  18  93 CALM      29.98S
DUBOIS         PTSUNNY   27  19  74 N14G21    29.90R WCI  15
LANDER         FAIR       5   2  87 E3        29.94S FOG
RIVERTON       HAZE      16  11  80 NW6       29.96R VSB 1/2 WCI   7
CASPER         FAIR      22  15  75 W7        29.92S WCI  13
DOUGLAS        FAIR      10   6  84 CALM      29.94S

$$
WYZ021-027>030-104>119-171400-
SOUTHERN WYOMING

CITY           SKY/WX    TMP DP  RH WIND       PRES   REMARKS
EVANSTON       FAIR      25  17  72 SE6       29.96R WCI  18
FORT BRIDGER   FAIR      19  16  88 S5        30.00S WCI  12
ROCK SPRINGS   FAIR      13  10  88 S5        29.98S FOG     WCI   5
DIXON          PTSUNNY   10   8  92 CALM      30.03R
RAWLINS        FAIR      20  14  77 SW5       29.97S WCI  13
SARATOGA       PTSUNNY   19  18  93 S5        29.98S WCI  13
LARAMIE        MOCLDY    22  18  85 SW13      29.94S WCI  10
CHEYENNE       FAIR      32  22  66 W8        29.94S WCI  25
TORRINGTON     FOG       13  12  96 CALM      29.99R VSB 1/4
PINE BLUFFS    FAIR      14  12  92 S3        29.97S

$$


USA.gov is the U.S. government's official web portal to all federal, state and local government web resources and services.